{"data":{"norad_id":68794,"epoch":"2026-05-25T03:57:34.603776Z","epoch_age_seconds":63987,"freshness":"FRESH","line1":"1 68794U 26088C   26145.16498384  .00004354  00000+0  29381-3 0  9990","line2":"2 68794  97.5039 295.0332 0013376 169.8732 190.2768 15.07063652  4821","mean_motion":15.07063652,"eccentricity":0.0013376,"inclination_deg":97.5039,"raan_deg":295.0332,"arg_perigee_deg":169.8732,"mean_anomaly_deg":190.2768,"bstar":0.00029381,"rev_number":482,"period_min":95.550045154961,"perigee_km":535.91768003514,"apogee_km":554.43893314333,"semimajor_km":6923.3153065892,"source":"CELESTRAK","updated_at":"2026-05-25T13:38:08.087740Z"}}